User: anonymous   Login
Location: ??
(35.5052°N, 139.7262°E)
Time: 08:01:06
(UTC+00:00)
Language:

Cosmos 2061 Rocket - Orbit

View from above orbital plane
View from above orbital plane
View from above satellite
View from above satellite

Ground track
Ground track

The orbit data is extracted from the following two-line orbital elements,

1 20528U 90023B   21263.79895918  .00000036  00000-0  22073-4 0  9998
2 20528  82.9402 353.3217 0032271  21.9745  92.8585 13.72886655578346
Epoch (UTC): 20 September 2021 19:10:30
Eccentricity: 0.0032271
inclination: 82.9402°
perigee height: 965 km
apogee height: 1013 km
right ascension of ascending node: 353.3217°
argument of perigee: 21.9745°
revolutions per day: 13.72886655
mean anomaly at epoch: 92.8585°
orbit number at epoch: 57834

The dashed part of the orbit path shows where the satellite is in the earth's shadow,  

DLR